Flag for Germany Weather past 2 weeks in Mechernich, North Rhine-Westphalia, Germany

Now
50 °F

Passing clouds.


Feels Like: 50 °F
Forecast: 48 / 66 °F
Wind: 2 mph from Southwest

Location: Noervenich

Current Time: Jul 30, 2015 at 2:44:55 AM

Latest Report: Jul 30, 2015 at 1:20 AM


Visibility: N/A

Pressure: 29.92 "Hg

Humidity: 82%

Dew point: 45 °F

Location of MechernichLocation

Historic Weather in Mechernich — Graph

°F

Mechernich temperature yesterday

Maximum temperature yesterday: 66 °F (at 2:20 PM)
Minimum temperature yesterday: 54 °F (at 3:20 AM)
Average temperature yesterday: 59 °F

Past Weeks' High & Low Weather Summary

 TemperatureHumidityPressure
High93 °F (Jul 17, 3:20 PM)100% (Jul 19, 4:20 AM)30.12 "Hg (Jul 19, 4:20 AM)
Low50 °F (Jul 26, 3:20 AM)23% (Jul 17, 3:20 PM)29.53 "Hg (Jul 25, 7:20 AM)
Average67 °F71%29.90 "Hg
* Reported Jul 15 1:20 AM — Jul 30 1:20 AM, Mechernich, Weather by CustomWeather, © 2015

Note: Actual official high and low records may vary slightly from our data, if they occured in-between our weather recording intervals... More about our weather records

Advertising

Mechernich weather history for previous 24 hours

 ConditionsComfort  
Time TempWeatherWind HumidityBarometerVisibility
1:20 AM
Thu, Jul 30
50 °FPassing clouds.2 mph82%29.92 "HgN/A
12:20 AM52 °FPassing clouds.2 mph82%29.92 "HgN/A
11:20 PM
Wed, Jul 29
54 °FPassing clouds.3 mph77%29.92 "HgN/A
10:20 PM55 °FPassing clouds.3 mph72%29.92 "HgN/A
9:20 PM59 °FPartly sunny.5 mph63%29.89 "HgN/A
8:20 PM63 °FPassing clouds.12 mph49%29.86 "HgN/A
7:20 PM64 °FScattered clouds.15 mph46%29.86 "HgN/A
6:20 PM64 °FScattered clouds.14 mph49%29.83 "HgN/A
5:20 PM63 °FScattered clouds.12 mph68%29.83 "HgN/A
4:20 PM63 °FScattered clouds.6 mph59%29.80 "HgN/A
3:20 PM59 °FPartly sunny.7 mph77%29.80 "HgN/A
2:20 PM66 °FPartly sunny.17 mph46%29.77 "HgN/A
1:20 PM64 °FScattered clouds.16 mph43%29.77 "HgN/A
12:20 PM64 °FScattered clouds.15 mph49%29.77 "HgN/A
11:20 AM63 °FScattered clouds.15 mph59%29.77 "HgN/A
10:20 AM59 °FScattered clouds.6 mph72%29.77 "HgN/A
9:20 AM55 °FPartly sunny.7 mph82%29.80 "HgN/A
8:20 AM55 °FPartly sunny.6 mph82%29.77 "HgN/A
7:20 AM54 °FSprinkles. Partly sunny.6 mph82%29.80 "HgN/A
6:20 AM54 °FPartly cloudy.7 mph82%29.80 "HgN/A
5:20 AM54 °FPassing clouds.7 mph82%29.80 "HgN/A
4:20 AM54 °FPassing clouds.8 mph82%29.80 "HgN/A
3:20 AM54 °FCool.8 mph77%29.80 "HgN/A
2:20 AM55 °FPassing clouds.8 mph77%29.80 "HgN/A
Weather by CustomWeather, © 2015

See weather overviewHow to use our weather pages